| time (UTC) | temp F | wind direction | speed knots | gust knots | rain 1hr in | rain 24hr in | rain mn in | humidity % | barometer mb |
| 20260901131605 | 65 | 0 | 0.0 | 0.0 | 0.00 | 0.06 | 0.00 | 85 | 1021.0 |
| 20260901131045 | 64 | 0 | 0.0 | 0.0 | 0.00 | 0.06 | 0.00 | 84 | 1021.1 |
| 20260901130546 | 64 | 0 | 0.0 | 0.0 | 0.00 | 0.06 | 0.00 | 86 | 1021.2 |
| 20260901130108 | 63 | 0 | 0.0 | 2.6 | 0.00 | 0.06 | 0.00 | 86 | 1021.2 |
| 20260901125545 | 62 | 0 | 0.0 | 2.6 | 0.00 | 0.06 | 0.00 | 87 | 1021.1 |
| 20260901125048 | 62 | 0 | 0.0 | 0.0 | 0.00 | 0.06 | 0.00 | 88 | 1021.1 |
| 20260901124603 | 61 | 0 | 0.0 | 2.6 | 0.00 | 0.06 | 0.00 | 89 | 1021.2 |
| 20260901124047 | 61 | 0 | 0.0 | 3.5 | 0.00 | 0.06 | 0.00 | 89 | 1021.2 |
| 20260901123546 | 62 | 0 | 0.0 | 6.1 | 0.00 | 0.06 | 0.00 | 89 | 1021.3 |
| 20260901123110 | 62 | 0 | 0.0 | 14.8 | 0.00 | 0.05 | 0.00 | 88 | 1021.4 |
| 20260901122546 | 62 | 258 | 1.7 | 15.6 | 0.00 | 0.05 | 0.00 | 87 | 1021.3 |
| 20260901122048 | 62 | 272 | 0.9 | 15.6 | 0.00 | 0.05 | 0.00 | 86 | 1021.5 |
| 20260901121604 | 63 | 242 | 2.6 | 15.6 | 0.00 | 0.05 | 0.00 | 85 | 1021.4 |
| 20260901121045 | 64 | 0 | 4.3 | 23.5 | 0.00 | 0.05 | 0.00 | 81 | 1021.3 |
| 20260901120544 | 65 | 0 | 6.1 | 23.5 | 0.00 | 0.05 | 0.00 | 77 | 1021.0 |
| 20260901120120 | 67 | 222 | 2.6 | 23.5 | 0.00 | 0.05 | 0.00 | 76 | 1020.9 |
| 20260901115548 | 68 | 213 | 3.5 | 14.8 | 0.00 | 0.06 | 0.00 | 72 | 1020.5 |
| 20260901115045 | 69 | 0 | 1.7 | 13.9 | 0.00 | 0.06 | 0.00 | 71 | 1020.4 |
| 20260901114604 | 68 | 239 | 0.0 | 10.4 | 0.00 | 0.06 | 0.00 | 72 | 1020.4 |
| 20260901114045 | 68 | 0 | 1.7 | 11.3 | 0.00 | 0.06 | 0.00 | 71 | 1020.4 |
| 20260901113546 | 69 | 0 | 3.5 | 11.3 | 0.00 | 0.06 | 0.00 | 70 | 1020.4 |
| 20260901113107 | 70 | 0 | 1.7 | 10.4 | 0.00 | 0.06 | 0.00 | 71 | 1020.3 |
| 20260901112546 | 69 | 0 | 0.9 | 13.0 | 0.00 | 0.06 | 0.00 | 69 | 1020.4 |
| 20260901112045 | 69 | 251 | 0.0 | 13.0 | 0.00 | 0.06 | 0.00 | 70 | 1020.4 |
| 20260901111606 | 69 | 0 | 3.5 | 13.9 | 0.00 | 0.06 | 0.00 | 71 | 1020.4 |
| 20260901111046 | 68 | 273 | 4.3 | 13.9 | 0.00 | 0.06 | 0.00 | 73 | 1020.5 |
| 20260901110546 | 67 | 232 | 2.6 | 12.2 | 0.00 | 0.06 | 0.00 | 74 | 1020.4 |
| 20260901105542 | 68 | 0 | 0.9 | 9.6 | 0.00 | 0.06 | 0.00 | 75 | 1020.4 |
| 20260901105044 | 69 | 0 | 0.9 | 9.6 | 0.00 | 0.06 | 0.00 | 77 | 1020.4 |
| 20260901104601 | 67 | 0 | 0.9 | 7.8 | 0.00 | 0.06 | 0.00 | 79 | 1020.4 |
| 20260901104045 | 66 | 234 | 0.9 | 10.4 | 0.00 | 0.06 | 0.00 | 80 | 1020.4 |
| 20260901103545 | 66 | 249 | 2.6 | 10.4 | 0.00 | 0.06 | 0.00 | 79 | 1020.5 |
| 20260901103109 | 66 | 243 | 0.9 | 11.3 | 0.00 | 0.06 | 0.00 | 78 | 1020.5 |
| 20260901102546 | 67 | 226 | 0.0 | 11.3 | 0.00 | 0.06 | 0.00 | 78 | 1020.5 |
| 20260901102045 | 67 | 234 | 1.7 | 9.6 | 0.00 | 0.06 | 0.00 | 78 | 1020.6 |
| 20260901101608 | 67 | 0 | 1.7 | 9.6 | 0.00 | 0.06 | 0.00 | 79 | 1020.5 |
| 20260901101048 | 66 | 0 | 0.0 | 7.0 | 0.00 | 0.06 | 0.00 | 79 | 1020.6 |
| 20260901100546 | 66 | 219 | 0.0 | 7.0 | 0.00 | 0.06 | 0.00 | 82 | 1020.8 |
| 20260901100107 | 65 | 0 | 1.7 | 7.8 | 0.00 | 0.06 | 0.00 | 83 | 1020.7 |
| 20260901095545 | 64 | 0 | 0.0 | 9.6 | 0.00 | 0.06 | 0.00 | 83 | 1020.6 |
| 20260901095045 | 64 | 239 | 0.9 | 9.6 | 0.00 | 0.06 | 0.00 | 84 | 1020.7 |
| 20260901094605 | 64 | 232 | 0.9 | 7.0 | 0.00 | 0.06 | 0.00 | 84 | 1020.7 |
| 20260901094045 | 64 | 0 | 0.0 | 7.0 | 0.00 | 0.06 | 0.00 | 83 | 1020.8 |
| 20260901093544 | 64 | 0 | 0.0 | 7.8 | 0.00 | 0.06 | 0.00 | 83 | 1020.8 |
| 20260901093105 | 65 | 0 | 0.9 | 7.8 | 0.00 | 0.06 | 0.00 | 83 | 1020.7 |
| 20260901092546 | 65 | 229 | 0.0 | 6.1 | 0.00 | 0.06 | 0.00 | 84 | 1020.6 |
| 20260901092045 | 65 | 0 | 0.0 | 6.1 | 0.00 | 0.06 | 0.00 | 85 | 1020.7 |
| 20260901091602 | 64 | 237 | 0.0 | 6.1 | 0.00 | 0.06 | 0.00 | 85 | 1020.6 |
| 20260901091045 | 64 | 0 | 0.0 | 6.1 | 0.00 | 0.06 | 0.00 | 86 | 1020.5 |
| 20260901090550 | 63 | 208 | 0.0 | 7.0 | 0.00 | 0.06 | 0.00 | 87 | 1020.6 |
| 20260901090056 | 63 | 215 | 0.9 | 7.8 | 0.00 | 0.06 | 0.00 | 86 | 1020.6 |
| 20260901085544 | 63 | 215 | 0.0 | 9.6 | 0.00 | 0.06 | 0.00 | 86 | 1020.7 |
| 20260901085048 | 64 | 218 | 0.9 | 9.6 | 0.00 | 0.06 | 0.00 | 85 | 1020.7 |
| 20260901084600 | 64 | 238 | 0.0 | 7.8 | 0.00 | 0.06 | 0.00 | 85 | 1020.6 |
| 20260901084045 | 64 | 0 | 0.0 | 7.8 | 0.00 | 0.06 | 0.00 | 85 | 1020.4 |
| 20260901083541 | 64 | 0 | 0.0 | 7.8 | 0.00 | 0.06 | 0.00 | 87 | 1020.5 |
| 20260901083100 | 63 | 0 | 0.0 | 7.8 | 0.00 | 0.06 | 0.00 | 86 | 1020.5 |
| 20260901082543 | 63 | 242 | 0.0 | 7.8 | 0.00 | 0.06 | 0.00 | 85 | 1020.5 |
| 20260901082041 | 64 | 0 | 0.9 | 7.8 | 0.00 | 0.06 | 0.00 | 85 | 1020.4 |
| 20260901081555 | 64 | 0 | 0.0 | 10.4 | 0.00 | 0.06 | 0.00 | 85 | 1020.3 |
| 20260901081045 | 64 | 227 | 0.0 | 10.4 | 0.00 | 0.06 | 0.00 | 84 | 1020.2 |
| 20260901080545 | 64 | 0 | 1.7 | 10.4 | 0.00 | 0.06 | 0.00 | 83 | 1020.2 |
| 20260901080106 | 64 | 0 | 1.7 | 9.6 | 0.00 | 0.06 | 0.00 | 83 | 1020.2 |
| 20260901075547 | 64 | 229 | 1.7 | 9.6 | 0.00 | 0.06 | 0.00 | 83 | 1020.1 |
| 20260901075046 | 64 | 209 | 1.7 | 8.7 | 0.00 | 0.06 | 0.00 | 82 | 1020.1 |
| 20260901074601 | 64 | 0 | 0.0 | 13.9 | 0.00 | 0.06 | 0.00 | 83 | 1020.1 |
| 20260901074046 | 64 | 223 | 0.9 | 13.9 | 0.00 | 0.06 | 0.00 | 84 | 1020.0 |
| 20260901073545 | 63 | 220 | 0.0 | 6.1 | 0.00 | 0.06 | 0.00 | 85 | 1020.1 |
| 20260901073058 | 64 | 225 | 0.9 | 12.2 | 0.00 | 0.06 | 0.00 | 85 | 1019.9 |
| 20260901072542 | 63 | 221 | 0.0 | 12.2 | 0.00 | 0.06 | 0.00 | 84 | 1020.1 |
| 20260901072042 | 63 | 0 | 0.9 | 12.2 | 0.00 | 0.06 | 0.00 | 86 | 1020.0 |
| 20260901071633 | 63 | 0 | 0.0 | 7.0 | 0.00 | 0.06 | 0.00 | 87 | 1020.0 |
| 20260901071045 | 62 | 0 | 1.7 | 8.7 | 0.00 | 0.06 | 0.00 | 87 | 1020.0 |
| 20260901070544 | 62 | 0 | 0.9 | 8.7 | 0.00 | 0.06 | 0.00 | 87 | 1020.1 |
| 20260901070059 | 62 | 0 | 0.0 | 8.7 | 0.00 | 0.06 | 0.00 | 87 | 1020.0 |
| 20260901065545 | 62 | 0 | 0.0 | 8.7 | 0.00 | 0.06 | 0.00 | 87 | 1020.1 |
| 20260901065046 | 62 | 0 | 1.7 | 8.7 | 0.00 | 0.06 | 0.00 | 87 | 1020.1 |
| 20260901064606 | 62 | 0 | 2.6 | 9.6 | 0.00 | 0.06 | 0.00 | 87 | 1020.1 |
| 20260901064042 | 62 | 0 | 1.7 | 9.6 | 0.00 | 0.06 | 0.00 | 88 | 1020.1 |
| 20260901063545 | 62 | 0 | 1.7 | 9.6 | 0.00 | 0.06 | 0.00 | 88 | 1020.0 |
| 20260901063105 | 62 | 223 | 0.9 | 7.0 | 0.00 | 0.06 | 0.00 | 88 | 1020.0 |
| 20260901062545 | 62 | 0 | 0.9 | 7.0 | 0.00 | 0.06 | 0.00 | 88 | 1020.0 |
| 20260901062048 | 62 | 0 | 0.0 | 5.2 | 0.00 | 0.06 | 0.00 | 89 | 1019.8 |
| 20260901061603 | 61 | 226 | 0.0 | 4.3 | 0.00 | 0.06 | 0.00 | 90 | 1019.8 |
| 20260901061045 | 61 | 0 | 0.0 | 0.0 | 0.00 | 0.06 | 0.00 | 90 | 1019.8 |
| 20260901060546 | 60 | 0 | 0.0 | 6.1 | 0.00 | 0.06 | 0.00 | 90 | 1019.7 |
| 20260901060117 | 60 | 0 | 0.0 | 6.1 | 0.00 | 0.06 | 0.00 | 90 | 1019.7 |
| 20260901055545 | 60 | 0 | 0.0 | 6.1 | 0.00 | 0.06 | 0.00 | 91 | 1019.6 |
| 20260901055046 | 60 | 229 | 0.0 | 6.1 | 0.00 | 0.06 | 0.00 | 91 | 1019.6 |
| 20260901054606 | 60 | 0 | 0.0 | 6.1 | 0.00 | 0.06 | 0.00 | 91 | 1019.7 |
| 20260901054045 | 60 | 0 | 0.0 | 6.1 | 0.00 | 0.06 | 0.00 | 91 | 1019.6 |
| 20260901053546 | 60 | 0 | 0.0 | 5.2 | 0.00 | 0.06 | 0.00 | 91 | 1019.5 |
| 20260901053114 | 60 | 0 | 0.0 | 0.0 | 0.00 | 0.06 | 0.00 | 91 | 1019.5 |
| 20260901052546 | 59 | 0 | 0.0 | 0.0 | 0.00 | 0.06 | 0.00 | 91 | 1019.5 |
| 20260901052045 | 60 | 0 | 0.0 | 0.0 | 0.00 | 0.06 | 0.00 | 91 | 1019.4 |
| 20260901051611 | 60 | 0 | 0.0 | 0.0 | 0.00 | 0.06 | 0.00 | 91 | 1019.3 |
| 20260901051045 | 60 | 0 | 0.0 | 0.9 | 0.00 | 0.06 | 0.00 | 90 | 1019.4 |
| 20260901050546 | 60 | 0 | 0.0 | 0.9 | 0.00 | 0.06 | 0.00 | 90 | 1019.2 |
| 20260901050107 | 60 | 0 | 0.0 | 0.0 | 0.00 | 0.06 | 0.00 | 90 | 1019.2 |
| 20260901045544 | 60 | 0 | 0.0 | 4.3 | 0.00 | 0.06 | 0.00 | 90 | 1019.1 |
| 20260901045047 | 60 | 0 | 0.0 | 4.3 | 0.00 | 0.06 | 0.00 | 90 | 1019.1 |
| 20260901044609 | 60 | 0 | 0.0 | 4.3 | 0.00 | 0.06 | 0.00 | 90 | 1019.1 |
| 20260901044045 | 60 | 0 | 0.0 | 4.3 | 0.00 | 0.06 | 0.00 | 90 | 1018.9 |
| 20260901043546 | 60 | 0 | 0.0 | 0.0 | 0.00 | 0.06 | 0.00 | 90 | 1018.9 |
| 20260901043126 | 60 | 0 | 0.0 | 5.2 | 0.00 | 0.06 | 0.00 | 90 | 1018.8 |
| 20260901042545 | 60 | 0 | 0.0 | 5.2 | 0.00 | 0.06 | 0.00 | 91 | 1018.7 |
| 20260901042046 | 60 | 0 | 0.0 | 5.2 | 0.00 | 0.06 | 0.00 | 91 | 1018.6 |
| 20260901041603 | 60 | 0 | 0.0 | 1.7 | 0.00 | 0.06 | 0.00 | 91 | 1018.6 |
| 20260901041047 | 60 | 0 | 0.0 | 1.7 | 0.00 | 0.06 | 0.00 | 91 | 1018.8 |
| 20260901040546 | 60 | 0 | 0.0 | 0.0 | 0.00 | 0.06 | 0.00 | 91 | 1018.7 |
| 20260901040125 | 60 | 0 | 0.0 | 0.0 | 0.00 | 0.06 | 0.00 | 91 | 1018.7 |
| 20260901035547 | 60 | 0 | 0.0 | 0.0 | 0.00 | 0.06 | 0.00 | 91 | 1018.6 |
| 20260901035047 | 60 | 0 | 0.0 | 0.0 | 0.00 | 0.06 | 0.00 | 91 | 1018.6 |
| 20260901034610 | 60 | 0 | 0.0 | 0.0 | 0.00 | 0.06 | 0.00 | 90 | 1018.5 |
| 20260901034046 | 61 | 0 | 0.0 | 0.9 | 0.00 | 0.06 | 0.00 | 90 | 1018.4 |
| 20260901033546 | 61 | 0 | 0.0 | 3.5 | 0.00 | 0.06 | 0.00 | 90 | 1018.5 |
| 20260901033136 | 61 | 0 | 0.0 | 8.7 | 0.00 | 0.06 | 0.00 | 90 | 1018.5 |
| 20260901032548 | 61 | 0 | 0.0 | 8.7 | 0.00 | 0.06 | 0.00 | 90 | 1018.4 |
| 20260901032047 | 61 | 237 | 0.0 | 7.8 | 0.00 | 0.06 | 0.00 | 90 | 1018.4 |
| 20260901031623 | 61 | 0 | 0.0 | 7.0 | 0.00 | 0.06 | 0.00 | 90 | 1018.4 |
| 20260901031047 | 61 | 232 | 0.0 | 4.3 | 0.00 | 0.06 | 0.00 | 90 | 1018.4 |
| 20260901030550 | 61 | 0 | 0.0 | 3.5 | 0.00 | 0.06 | 0.00 | 90 | 1018.4 |
| 20260901030105 | 61 | 0 | 0.0 | 7.8 | 0.00 | 0.06 | 0.00 | 90 | 1018.5 |
| 20260901025547 | 61 | 0 | 0.0 | 7.8 | 0.00 | 0.07 | 0.00 | 90 | 1018.5 |
| 20260901025047 | 61 | 248 | 0.0 | 6.1 | 0.00 | 0.07 | 0.00 | 90 | 1018.4 |
| 20260901024603 | 61 | 240 | 0.0 | 0.0 | 0.00 | 0.07 | 0.00 | 90 | 1018.4 |
| 20260901024047 | 61 | 0 | 0.0 | 0.0 | 0.00 | 0.07 | 0.00 | 90 | 1018.4 |
| 20260901023546 | 61 | 0 | 0.0 | 2.6 | 0.00 | 0.07 | 0.00 | 90 | 1018.4 |
| 20260901023109 | 61 | 0 | 0.0 | 7.0 | 0.00 | 0.07 | 0.00 | 90 | 1018.4 |
| 20260901022546 | 61 | 0 | 0.9 | 7.0 | 0.00 | 0.07 | 0.00 | 90 | 1018.3 |
| 20260901022046 | 61 | 0 | 0.9 | 5.2 | 0.00 | 0.07 | 0.00 | 90 | 1018.3 |
| 20260901021558 | 61 | 0 | 0.0 | 8.7 | 0.00 | 0.07 | 0.00 | 90 | 1018.3 |
| 20260901021048 | 61 | 0 | 0.0 | 8.7 | 0.00 | 0.07 | 0.00 | 90 | 1018.4 |
| 20260901020545 | 61 | 0 | 0.0 | 7.0 | 0.00 | 0.07 | 0.00 | 90 | 1018.3 |
| 20260901020057 | 61 | 0 | 0.9 | 8.7 | 0.00 | 0.07 | 0.00 | 90 | 1018.3 |
| 20260901015543 | 61 | 205 | 0.0 | 8.7 | 0.00 | 0.07 | 0.00 | 90 | 1018.2 |
| 20260901015047 | 61 | 0 | 0.9 | 7.8 | 0.00 | 0.07 | 0.00 | 89 | 1018.2 |
| 20260901014608 | 61 | 0 | 0.0 | 7.0 | 0.00 | 0.07 | 0.00 | 90 | 1018.3 |
| 20260901014046 | 61 | 0 | 0.9 | 7.0 | 0.00 | 0.07 | 0.00 | 90 | 1018.3 |
| 20260901013546 | 61 | 228 | 0.0 | 5.2 | 0.00 | 0.07 | 0.00 | 90 | 1018.3 |
| 20260901013104 | 61 | 221 | 0.0 | 4.3 | 0.00 | 0.07 | 0.00 | 90 | 1018.2 |
| 20260901012546 | 61 | 0 | 0.9 | 7.0 | 0.00 | 0.07 | 0.00 | 90 | 1018.3 |
| 20260901012048 | 61 | 0 | 0.0 | 7.0 | 0.00 | 0.07 | 0.00 | 90 | 1018.2 |
| 20260901011604 | 61 | 0 | 0.0 | 7.0 | 0.00 | 0.07 | 0.00 | 90 | 1018.3 |
| 20260901011047 | 61 | 0 | 0.9 | 6.1 | 0.00 | 0.07 | 0.00 | 90 | 1018.2 |
| 20260901010547 | 60 | 0 | 0.0 | 6.1 | 0.00 | 0.07 | 0.00 | 90 | 1018.2 |
| 20260901010104 | 60 | 0 | 0.0 | 6.1 | 0.00 | 0.07 | 0.00 | 90 | 1018.2 |
| 20260901005546 | 60 | 0 | 0.0 | 6.1 | 0.00 | 0.07 | 0.00 | 90 | 1018.2 |
| 20260901005046 | 60 | 0 | 0.0 | 5.2 | 0.00 | 0.07 | 0.00 | 90 | 1018.2 |
| 20260901004609 | 60 | 0 | 0.0 | 7.8 | 0.00 | 0.07 | 0.00 | 90 | 1018.1 |
| 20260901004046 | 60 | 0 | 0.9 | 7.8 | 0.00 | 0.07 | 0.00 | 90 | 1018.1 |
| 20260901003546 | 60 | 0 | 0.9 | 7.8 | 0.00 | 0.07 | 0.00 | 90 | 1018.0 |
| 20260901003105 | 60 | 0 | 0.0 | 6.1 | 0.00 | 0.07 | 0.00 | 90 | 1018.0 |
| 20260901002547 | 59 | 0 | 0.0 | 5.2 | 0.00 | 0.07 | 0.00 | 90 | 1018.1 |
| 20260901002047 | 60 | 0 | 0.0 | 5.2 | 0.00 | 0.07 | 0.00 | 89 | 1018.0 |
| 20260901001621 | 60 | 0 | 0.0 | 5.2 | 0.00 | 0.07 | 0.00 | 89 | 1017.9 |
| 20260901001047 | 60 | 0 | 0.0 | 7.8 | 0.00 | 0.07 | 0.00 | 89 | 1017.8 |
| 20260901000546 | 60 | 0 | 0.0 | 7.8 | 0.00 | 0.07 | 0.00 | 89 | 1017.7 |
| 20260901000114 | 60 | 0 | 0.0 | 8.7 | 0.00 | 0.07 | 0.00 | 88 | 1017.8 |
| 20260831235547 | 60 | 0 | 0.9 | 8.7 | 0.00 | 0.07 | 0.00 | 88 | 1017.9 |
| 20260831235047 | 60 | 244 | 1.7 | 8.7 | 0.00 | 0.07 | 0.00 | 88 | 1018.0 |
| 20260831234606 | 60 | 0 | 0.9 | 7.8 | 0.00 | 0.07 | 0.00 | 88 | 1017.9 |
| 20260831234047 | 60 | 0 | 0.0 | 6.1 | 0.00 | 0.07 | 0.00 | 88 | 1018.0 |
| 20260831233546 | 59 | 0 | 0.0 | 3.5 | 0.00 | 0.07 | 0.00 | 88 | 1018.0 |
| 20260831233104 | 59 | 0 | 0.0 | 2.6 | 0.00 | 0.07 | 0.00 | 87 | 1017.8 |
| 20260831232546 | 60 | 0 | 0.0 | 3.5 | 0.00 | 0.07 | 0.00 | 88 | 1018.0 |
| 20260831232045 | 59 | 0 | 0.0 | 3.5 | 0.00 | 0.07 | 0.00 | 88 | 1017.9 |
| 20260831231600 | 59 | 234 | 0.0 | 4.3 | 0.00 | 0.07 | 0.00 | 88 | 1017.9 |
| 20260831231046 | 59 | 0 | 0.0 | 4.3 | 0.00 | 0.07 | 0.00 | 88 | 1017.8 |
| 20260831230545 | 59 | 0 | 0.0 | 4.3 | 0.00 | 0.07 | 0.00 | 88 | 1017.8 |
| 20260831230110 | 59 | 0 | 0.0 | 0.0 | 0.00 | 0.07 | 0.00 | 88 | 1017.7 |
| 20260831225546 | 60 | 0 | 0.0 | 0.0 | 0.00 | 0.07 | 0.00 | 87 | 1017.8 |
| 20260831225046 | 60 | 0 | 0.0 | 5.2 | 0.00 | 0.07 | 0.00 | 87 | 1017.8 |
| 20260831224558 | 60 | 0 | 0.0 | 5.2 | 0.00 | 0.07 | 0.00 | 87 | 1017.7 |
| 20260831224044 | 60 | 0 | 0.0 | 3.5 | 0.00 | 0.07 | 0.00 | 86 | 1017.7 |
| 20260831223547 | 60 | 0 | 0.0 | 6.1 | 0.00 | 0.07 | 0.00 | 86 | 1017.8 |
| 20260831223110 | 60 | 0 | 0.0 | 6.1 | 0.00 | 0.07 | 0.00 | 86 | 1017.8 |
| 20260831222545 | 60 | 0 | 0.0 | 6.1 | 0.00 | 0.07 | 0.00 | 86 | 1017.8 |
| 20260831222045 | 60 | 0 | 0.0 | 2.6 | 0.00 | 0.07 | 0.00 | 86 | 1017.7 |
| 20260831221605 | 60 | 0 | 0.0 | 2.6 | 0.00 | 0.07 | 0.00 | 85 | 1017.8 |
| 20260831221046 | 60 | 0 | 0.0 | 4.3 | 0.00 | 0.07 | 0.00 | 85 | 1017.8 |
| 20260831220546 | 61 | 0 | 0.0 | 4.3 | 0.00 | 0.07 | 0.00 | 84 | 1017.7 |
| 20260831220105 | 61 | 0 | 0.0 | 6.1 | 0.00 | 0.07 | 0.00 | 84 | 1017.7 |
| 20260831215544 | 61 | 0 | 0.0 | 6.1 | 0.00 | 0.07 | 0.07 | 84 | 1017.7 |
| 20260831215044 | 61 | 0 | 0.0 | 6.1 | 0.00 | 0.07 | 0.07 | 85 | 1017.7 |
| 20260831214601 | 61 | 223 | 0.0 | 3.5 | 0.00 | 0.07 | 0.07 | 85 | 1017.7 |
| 20260831214049 | 61 | 0 | 0.0 | 8.7 | 0.00 | 0.07 | 0.07 | 85 | 1017.6 |
| 20260831213544 | 61 | 0 | 0.0 | 8.7 | 0.00 | 0.07 | 0.07 | 86 | 1017.6 |
| 20260831213058 | 61 | 0 | 0.0 | 1.7 | 0.00 | 0.07 | 0.07 | 86 | 1017.7 |
| 20260831212545 | 61 | 0 | 0.0 | 3.5 | 0.00 | 0.07 | 0.07 | 87 | 1017.6 |
| 20260831212049 | 61 | 0 | 0.0 | 3.5 | 0.00 | 0.07 | 0.07 | 87 | 1017.6 |
| 20260831211559 | 61 | 0 | 0.0 | 2.6 | 0.00 | 0.07 | 0.07 | 88 | 1017.6 |
| 20260831211044 | 61 | 0 | 0.0 | 2.6 | 0.00 | 0.07 | 0.07 | 88 | 1017.5 |
| 20260831210547 | 61 | 0 | 0.0 | 2.6 | 0.00 | 0.07 | 0.07 | 88 | 1017.4 |
| 20260831210114 | 61 | 0 | 0.0 | 3.5 | 0.00 | 0.07 | 0.07 | 87 | 1017.3 |
| 20260831205546 | 61 | 0 | 0.0 | 3.5 | 0.00 | 0.07 | 0.07 | 87 | 1017.3 |
| 20260831205046 | 61 | 0 | 0.0 | 4.3 | 0.00 | 0.07 | 0.07 | 87 | 1017.3 |
| 20260831204559 | 61 | 0 | 0.0 | 4.3 | 0.00 | 0.07 | 0.07 | 86 | 1017.2 |
| 20260831204046 | 62 | 230 | 0.0 | 3.5 | 0.00 | 0.07 | 0.07 | 86 | 1017.2 |
| 20260831203544 | 62 | 0 | 0.0 | 3.5 | 0.00 | 0.07 | 0.07 | 86 | 1017.1 |
| 20260831203103 | 62 | 0 | 0.0 | 6.1 | 0.00 | 0.07 | 0.07 | 86 | 1017.0 |
| 20260831202546 | 62 | 0 | 0.0 | 6.1 | 0.00 | 0.07 | 0.07 | 86 | 1016.9 |
| 20260831202044 | 62 | 0 | 0.0 | 6.1 | 0.00 | 0.07 | 0.07 | 86 | 1016.7 |
| 20260831201606 | 62 | 0 | 0.0 | 0.0 | 0.00 | 0.07 | 0.07 | 86 | 1016.7 |
| 20260831201047 | 62 | 0 | 0.0 | 0.0 | 0.00 | 0.07 | 0.07 | 85 | 1016.6 |
| 20260831200547 | 62 | 0 | 0.0 | 2.6 | 0.00 | 0.07 | 0.07 | 86 | 1016.6 |
| 20260831200059 | 62 | 0 | 0.0 | 3.5 | 0.00 | 0.07 | 0.07 | 86 | 1016.6 |
| 20260831195545 | 62 | 0 | 0.0 | 5.2 | 0.00 | 0.07 | 0.07 | 86 | 1016.6 |
| 20260831195044 | 62 | 0 | 0.0 | 5.2 | 0.00 | 0.07 | 0.07 | 87 | 1016.5 |
| 20260831194614 | 61 | 0 | 0.0 | 5.2 | 0.00 | 0.07 | 0.07 | 87 | 1016.4 |
| 20260831194047 | 61 | 0 | 0.0 | 0.9 | 0.00 | 0.07 | 0.07 | 87 | 1016.3 |
| 20260831193543 | 61 | 0 | 0.0 | 0.0 | 0.00 | 0.07 | 0.07 | 87 | 1016.3 |
| 20260831193107 | 62 | 0 | 0.0 | 0.0 | 0.00 | 0.07 | 0.07 | 87 | 1016.3 |
| 20260831192546 | 61 | 0 | 0.0 | 0.0 | 0.00 | 0.07 | 0.07 | 87 | 1016.2 |
| 20260831192045 | 61 | 0 | 0.0 | 0.0 | 0.00 | 0.07 | 0.07 | 88 | 1016.1 |
| 20260831191605 | 61 | 0 | 0.0 | 0.0 | 0.00 | 0.07 | 0.07 | 88 | 1016.1 |
| 20260831191045 | 61 | 0 | 0.0 | 0.0 | 0.00 | 0.07 | 0.07 | 88 | 1016.1 |
| 20260831190546 | 61 | 0 | 0.0 | 0.0 | 0.00 | 0.07 | 0.07 | 88 | 1016.0 |
| 20260831190108 | 61 | 0 | 0.0 | 0.0 | 0.00 | 0.07 | 0.07 | 88 | 1015.9 |
| 20260831185545 | 61 | 0 | 0.0 | 0.0 | 0.00 | 0.07 | 0.07 | 88 | 1015.8 |
| 20260831185044 | 61 | 0 | 0.0 | 0.0 | 0.00 | 0.07 | 0.07 | 87 | 1015.7 |
| 20260831184605 | 61 | 0 | 0.0 | 0.0 | 0.00 | 0.07 | 0.07 | 87 | 1015.6 |
| 20260831184047 | 61 | 0 | 0.0 | 3.5 | 0.00 | 0.07 | 0.07 | 86 | 1015.5 |
| 20260831183546 | 62 | 0 | 0.0 | 6.1 | 0.00 | 0.07 | 0.07 | 85 | 1015.4 |
| 20260831183105 | 62 | 0 | 0.0 | 6.1 | 0.00 | 0.07 | 0.07 | 85 | 1015.2 |
| 20260831182545 | 62 | 0 | 0.0 | 3.5 | 0.00 | 0.07 | 0.07 | 85 | 1015.2 |
| 20260831182046 | 62 | 0 | 0.0 | 0.0 | 0.00 | 0.07 | 0.07 | 84 | 1015.1 |
| 20260831181600 | 62 | 0 | 0.0 | 3.5 | 0.00 | 0.07 | 0.07 | 84 | 1015.0 |
| 20260831181046 | 62 | 0 | 0.0 | 5.2 | 0.00 | 0.07 | 0.07 | 84 | 1015.0 |
| 20260831180546 | 62 | 225 | 0.0 | 5.2 | 0.00 | 0.07 | 0.07 | 84 | 1014.7 |
| 20260831180111 | 62 | 0 | 0.0 | 7.0 | 0.00 | 0.07 | 0.07 | 84 | 1014.7 |
| 20260831175548 | 62 | 0 | 0.0 | 7.0 | 0.00 | 0.07 | 0.07 | 83 | 1014.7 |
| 20260831175047 | 63 | 0 | 0.0 | 11.3 | 0.00 | 0.07 | 0.07 | 83 | 1014.6 |
| 20260831174605 | 63 | 227 | 0.9 | 11.3 | 0.00 | 0.07 | 0.07 | 82 | 1014.5 |
| 20260831174050 | 63 | 0 | 0.9 | 8.7 | 0.00 | 0.07 | 0.07 | 82 | 1014.5 |
| 20260831173546 | 63 | 0 | 1.7 | 12.2 | 0.00 | 0.07 | 0.07 | 81 | 1014.4 |
| 20260831173130 | 63 | 0 | 0.9 | 12.2 | 0.00 | 0.07 | 0.07 | 80 | 1014.3 |
| 20260831172547 | 64 | 248 | 2.6 | 10.4 | 0.00 | 0.07 | 0.07 | 80 | 1014.3 |
| 20260831172047 | 63 | 239 | 0.0 | 12.2 | 0.00 | 0.07 | 0.07 | 81 | 1014.2 |
| 20260831171558 | 64 | 0 | 0.9 | 12.2 | 0.00 | 0.07 | 0.07 | 79 | 1014.0 |
| 20260831171046 | 64 | 251 | 0.0 | 9.6 | 0.00 | 0.07 | 0.07 | 79 | 1014.0 |
| 20260831170545 | 64 | 0 | 1.7 | 10.4 | 0.00 | 0.07 | 0.07 | 78 | 1013.8 |
| 20260831170110 | 64 | 0 | 0.9 | 13.0 | 0.00 | 0.07 | 0.07 | 79 | 1013.9 |
| 20260831165544 | 64 | 257 | 0.9 | 13.0 | 0.00 | 0.07 | 0.07 | 80 | 1013.9 |
| 20260831165044 | 64 | 0 | 1.7 | 13.0 | 0.00 | 0.07 | 0.07 | 81 | 1013.7 |
| 20260831164612 | 64 | 236 | 0.9 | 8.7 | 0.00 | 0.07 | 0.07 | 84 | 1013.7 |
| 20260831164050 | 63 | 0 | 0.9 | 7.8 | 0.00 | 0.07 | 0.07 | 85 | 1013.5 |
| 20260831163546 | 63 | 0 | 0.0 | 5.2 | 0.00 | 0.07 | 0.07 | 85 | 1013.4 |
| 20260831163109 | 63 | 0 | 0.0 | 5.2 | 0.00 | 0.07 | 0.07 | 85 | 1013.4 |
| 20260831162547 | 63 | 0 | 0.0 | 5.2 | 0.00 | 0.07 | 0.07 | 85 | 1013.4 |
| 20260831162046 | 64 | 0 | 0.0 | 13.0 | 0.00 | 0.07 | 0.07 | 85 | 1013.4 |
| 20260831161606 | 64 | 0 | 0.0 | 13.0 | 0.00 | 0.07 | 0.07 | 84 | 1013.4 |
| 20260831161044 | 64 | 215 | 3.5 | 13.9 | 0.00 | 0.07 | 0.07 | 83 | 1013.4 |
| 20260831160545 | 64 | 237 | 0.9 | 13.9 | 0.00 | 0.07 | 0.07 | 84 | 1013.4 |
| 20260831160105 | 64 | 0 | 2.6 | 13.9 | 0.00 | 0.07 | 0.07 | 82 | 1013.4 |
| 20260831155546 | 64 | 258 | 1.7 | 7.0 | 0.00 | 0.07 | 0.07 | 85 | 1013.4 |
| 20260831155052 | 64 | 0 | 0.9 | 7.0 | 0.00 | 0.07 | 0.07 | 87 | 1013.3 |
| 20260831154636 | 63 | 0 | 0.9 | 6.1 | 0.00 | 0.07 | 0.07 | 87 | 1013.4 |
| 20260831154044 | 63 | 0 | 0.0 | 10.4 | 0.00 | 0.07 | 0.07 | 89 | 1013.2 |
| 20260831153546 | 63 | 0 | 0.0 | 10.4 | 0.00 | 0.07 | 0.07 | 89 | 1013.4 |
| 20260831153105 | 63 | 229 | 0.9 | 10.4 | 0.00 | 0.07 | 0.07 | 89 | 1013.3 |
| 20260831152545 | 62 | 220 | 0.0 | 5.2 | 0.00 | 0.07 | 0.07 | 90 | 1013.1 |
| 20260831152046 | 62 | 220 | 0.0 | 4.3 | 0.00 | 0.07 | 0.07 | 90 | 1013.2 |
| 20260831151607 | 62 | 0 | 0.0 | 4.3 | 0.03 | 0.07 | 0.07 | 91 | 1013.0 |
| 20260831151046 | 62 | 0 | 0.0 | 8.7 | 0.05 | 0.07 | 0.07 | 91 | 1013.1 |
| 20260831150546 | 63 | 0 | 0.0 | 8.7 | 0.05 | 0.07 | 0.07 | 90 | 1013.0 |
| 20260831150107 | 63 | 0 | 0.0 | 7.8 | 0.05 | 0.07 | 0.07 | 91 | 1013.0 |
| 20260831145545 | 63 | 0 | 0.9 | 6.1 | 0.05 | 0.07 | 0.07 | 93 | 1013.1 |
| 20260831145046 | 63 | 0 | 0.0 | 0.0 | 0.05 | 0.07 | 0.07 | 93 | 1013.1 |
| 20260831144556 | 62 | 0 | 0.0 | 3.5 | 0.05 | 0.07 | 0.07 | 93 | 1012.9 |
| 20260831144046 | 62 | 0 | 0.0 | 3.5 | 0.05 | 0.07 | 0.07 | 93 | 1012.6 |
| 20260831143551 | 62 | 0 | 0.0 | 3.5 | 0.05 | 0.07 | 0.07 | 93 | 1012.5 |
| 20260831143110 | 61 | 0 | 0.0 | 4.3 | 0.05 | 0.07 | 0.07 | 92 | 1012.8 |
| 20260831142547 | 62 | 227 | 0.0 | 4.3 | 0.05 | 0.07 | 0.07 | 91 | 1012.7 |
| 20260831142047 | 62 | 0 | 0.0 | 3.5 | 0.04 | 0.06 | 0.06 | 89 | 1012.5 |
| 20260831141608 | 63 | 0 | 0.0 | 3.5 | 0.01 | 0.03 | 0.03 | 88 | 1012.4 |
| 20260831141046 | 63 | 0 | 0.0 | 3.5 | 0.00 | 0.01 | 0.01 | 88 | 1012.3 |
| 20260831140546 | 63 | 0 | 0.0 | 3.5 | 0.00 | 0.01 | 0.01 | 87 | 1012.2 |
| 20260831135546 | 63 | 0 | 0.0 | 3.5 | 0.00 | 0.01 | 0.01 | 87 | 1012.1 |
| 20260831135046 | 63 | 0 | 0.0 | 3.5 | 0.00 | 0.01 | 0.01 | 86 | 1012.2 |
| 20260831134606 | 63 | 0 | 0.0 | 4.3 | 0.00 | 0.01 | 0.01 | 85 | 1012.3 |
| 20260831134046 | 63 | 0 | 0.0 | 4.3 | 0.00 | 0.01 | 0.01 | 83 | 1012.2 |
| 20260831133542 | 64 | 0 | 0.0 | 13.9 | 0.00 | 0.01 | 0.01 | 81 | 1012.3 |
| 20260831133107 | 65 | 0 | 4.3 | 13.9 | 0.00 | 0.01 | 0.01 | 77 | 1012.3 |
| 20260831132546 | 66 | 241 | 4.3 | 13.0 | 0.00 | 0.01 | 0.01 | 76 | 1012.0 |
| 20260831132046 | 66 | 0 | 2.6 | 12.2 | 0.00 | 0.01 | 0.01 | 76 | 1012.0 |